User: anonymous
Location: ActonStarParty
(42.4766°N, 71.4538°W)
Time: 15:07:57
(UTC-04:00)
Language:

Cosmos 1300 - Orbit

View from above orbital plane
View from above orbital plane
View from above satellite
View from above satellite

Ground track
Ground track

The orbit data is extracted from the following two-line orbital elements,

1 12785U 81082A   14244.10081020  .00003558  00000-0  20860-3 0  7964
2 12785 082.5076 359.0651 0002303 132.8979 279.7000 15.11494518797398
Epoch (UTC): 01 September 2014 02:25:10
Eccentricity: 0.0002303
inclination: 82.5076°
perigee height: 530 km
apogee height: 533 km
right ascension of ascending node: 359.0651°
argument of perigee: 132.8979°
revolutions per day: 15.11494518
mean anomaly at epoch: 279.7000°
orbit number at epoch: 79739

The dashed part of the orbit path shows where the satellite is in the earth's shadow,  

DLR